contact:dominique.lefevre@mio.osupytheas.fr, maurice.libes@osupytheas.fr, didier.mallarino@osupytheas.fr
Project:EMSO http://www.emso-fr.org/EMSO-France
Depth: 2436.0 m
Title:EMSO Ligure Ouest : Data MII capteur AQUADOPP
Date,Latitude,Longitude,X_East,Y_North,Z_Up,Amplitude_X,Amplitude_Y,Amplitude_Z,Batterie,SoundSpeed,Heading,Pitch,Roll,Pressure,TIS,Speed,Direction
, degrees North, degrees East, m.s-1, m.s-1,m.s-1, 1, 1, 1, Volt, m.s-1, degree, degree, degree, dbar, degree_C, m.s-1, degree
2020-01-22T00:04:03,42.805,6.029,0.043,-0.06,-0.011,107.0,105.0,104.0,13.4,1505.2,327.7,-0.8,1.8,2470.299,13.3,0.073,144.4
2020-01-22T00:07:03,42.805,6.029,0.06,-0.062,-0.021,107.0,106.0,103.0,13.4,1505.3,323.5,-0.7,1.8,2470.29,13.31,0.086,135.9
2020-01-22T00:10:03,42.805,6.029,0.058,-0.048,-0.007,105.0,104.0,104.0,13.4,1505.3,324.6,-0.7,1.8,2470.25,13.31,0.075,129.6
2020-01-22T00:13:03,42.805,6.029,0.051,-0.057,-0.017,107.0,107.0,103.0,13.4,1505.3,324.1,-0.7,1.8,2470.235,13.31,0.076,138.2
2020-01-22T00:16:03,42.805,6.029,0.049,-0.062,0.006,106.0,106.0,103.0,13.4,1505.3,327.0,-0.7,1.9,2470.249,13.32,0.079,141.7
2020-01-22T00:19:03,42.805,6.029,0.053,-0.058,0.006,105.0,107.0,103.0,13.4,1505.3,328.2,-0.7,1.8,2470.224,13.32,0.078,137.6
2020-01-22T00:22:03,42.805,6.029,0.065,-0.028,-0.028,107.0,106.0,104.0,13.4,1505.3,323.1,-0.7,1.8,2470.229,13.32,0.07,113.3
2020-01-22T00:25:03,42.805,6.029,0.059,-0.051,-0.03,106.0,106.0,102.0,13.3,1505.3,325.6,-0.7,1.8,2470.212,13.32,0.077,130.8
2020-01-22T00:28:03,42.805,6.029,0.058,-0.055,-0.009,106.0,106.0,103.0,13.4,1505.3,327.2,-0.7,1.8,2470.18,13.32,0.079,133.5
2020-01-22T00:31:03,42.805,6.029,0.067,-0.069,0.017,105.0,106.0,102.0,13.4,1505.3,324.4,-0.7,1.8,2470.241,13.32,0.096,135.8
2020-01-22T00:34:03,42.805,6.029,0.06,-0.062,-0.024,106.0,105.0,103.0,13.4,1505.3,325.1,-0.7,1.8,2470.251,13.32,0.086,135.9
2020-01-22T00:37:03,42.805,6.029,0.07,-0.063,-0.027,107.0,106.0,102.0,13.4,1505.3,327.9,-0.7,1.8,2470.217,13.32,0.094,132.0
2020-01-22T00:40:03,42.805,6.029,0.056,-0.043,-0.007,106.0,107.0,102.0,13.3,1505.3,324.3,-0.7,1.9,2470.224,13.32,0.07,127.5
2020-01-22T00:43:03,42.805,6.029,0.051,-0.047,-0.016,106.0,106.0,103.0,13.3,1505.3,323.5,-0.7,1.8,2470.28,13.32,0.069,132.7
2020-01-22T00:46:03,42.805,6.029,0.067,-0.046,-0.035,106.0,106.0,102.0,13.4,1505.3,325.6,-0.7,1.8,2470.251,13.32,0.081,124.5
2020-01-22T00:52:03,42.805,6.029,0.043,-0.033,-0.004,106.0,105.0,103.0,13.4,1505.2,326.4,-0.7,1.8,2470.299,13.3,0.054,127.5
2020-01-22T00:55:03,42.805,6.029,0.061,-0.044,-0.024,106.0,106.0,103.0,13.4,1505.3,324.0,-0.7,1.8,2470.245,13.31,0.075,125.8
2020-01-22T00:58:03,42.805,6.029,0.05,-0.051,-0.002,106.0,105.0,102.0,13.4,1505.3,323.6,-0.7,1.9,2470.247,13.31,0.071,135.6
2020-01-22T01:04:03,42.805,6.029,0.058,-0.041,-0.014,107.0,107.0,105.0,13.3,1505.2,323.2,-0.8,1.8,2470.291,13.3,0.071,125.3
2020-01-22T01:07:03,42.805,6.029,0.052,-0.054,0.003,105.0,106.0,103.0,13.4,1505.3,327.7,-0.7,1.9,2470.278,13.31,0.074,136.1
2020-01-22T01:10:03,42.805,6.029,0.031,-0.051,0.0,105.0,106.0,103.0,13.3,1505.3,325.8,-0.7,1.8,2470.275,13.31,0.059,148.7
2020-01-22T01:13:03,42.805,6.029,0.048,-0.029,-0.019,106.0,106.0,103.0,13.4,1505.3,328.4,-0.8,1.9,2470.297,13.31,0.056,121.1
2020-01-22T01:16:03,42.805,6.029,0.074,-0.053,-0.006,105.0,106.0,102.0,13.4,1505.3,326.8,-0.7,1.8,2470.259,13.32,0.091,125.6
2020-01-22T01:19:03,42.805,6.029,0.045,-0.042,-0.019,105.0,105.0,102.0,13.4,1505.3,326.4,-0.7,1.8,2470.258,13.32,0.061,133.0
2020-01-22T01:22:03,42.805,6.029,0.07,-0.038,-0.02,105.0,104.0,103.0,13.4,1505.3,324.1,-0.7,1.8,2470.27,13.32,0.079,118.5
2020-01-22T01:25:03,42.805,6.029,0.047,-0.045,-0.018,106.0,106.0,103.0,13.4,1505.3,324.0,-0.7,1.8,2470.276,13.32,0.065,133.8
2020-01-22T01:28:03,42.805,6.029,0.056,-0.034,-0.024,106.0,106.0,104.0,13.3,1505.3,327.7,-0.7,1.8,2470.284,13.32,0.065,121.3
2020-01-22T01:31:03,42.805,6.029,0.072,-0.042,-0.008,108.0,107.0,103.0,13.4,1505.3,326.8,-0.7,1.8,2470.236,13.32,0.083,120.3
2020-01-22T01:34:03,42.805,6.029,0.071,-0.054,0.007,106.0,104.0,103.0,13.4,1505.3,324.4,-0.7,1.8,2470.238,13.32,0.089,127.3
2020-01-22T01:37:03,42.805,6.029,0.054,-0.073,-0.044,106.0,106.0,103.0,13.3,1505.3,325.3,-0.7,1.8,2470.237,13.32,0.09,143.5
2020-01-22T01:40:03,42.805,6.029,0.057,-0.062,-0.023,107.0,105.0,103.0,13.4,1505.3,326.7,-0.7,1.8,2470.243,13.32,0.084,137.4
2020-01-22T01:43:03,42.805,6.029,0.055,-0.071,-0.027,105.0,106.0,104.0,13.4,1505.3,325.7,-0.7,1.9,2470.284,13.32,0.089,142.2
2020-01-22T01:46:03,42.805,6.029,0.044,-0.03,-0.026,107.0,105.0,103.0,13.4,1505.3,327.8,-0.7,1.9,2470.263,13.32,0.053,124.3
2020-01-22T01:52:03,42.805,6.029,0.056,-0.037,-0.005,106.0,105.0,103.0,13.4,1505.2,323.3,-0.7,1.8,2470.346,13.3,0.067,123.5
2020-01-22T01:55:03,42.805,6.029,0.042,-0.05,-0.024,106.0,105.0,103.0,13.4,1505.3,326.3,-0.7,1.9,2470.268,13.31,0.065,140.0
2020-01-22T01:58:03,42.805,6.029,0.051,-0.035,-0.004,105.0,106.0,104.0,13.4,1505.3,324.7,-0.7,1.8,2470.28,13.31,0.061,124.5
2020-01-22T02:04:03,42.805,6.029,0.069,-0.057,-0.035,106.0,106.0,103.0,13.4,1505.2,322.8,-0.7,1.8,2470.322,13.3,0.089,129.6
2020-01-22T02:07:03,42.805,6.029,0.052,-0.062,-0.04,106.0,105.0,104.0,13.4,1505.3,328.0,-0.7,1.8,2470.317,13.31,0.08,140.0
2020-01-22T02:10:03,42.805,6.029,0.055,-0.049,-0.028,106.0,107.0,103.0,13.4,1505.3,324.3,-0.7,1.8,2470.32,13.31,0.073,131.7
2020-01-22T02:13:03,42.805,6.029,0.053,-0.04,-0.013,107.0,106.0,103.0,13.4,1505.3,326.1,-0.7,1.8,2470.321,13.31,0.066,127.0
2020-01-22T02:16:03,42.805,6.029,0.039,-0.051,0.007,106.0,106.0,102.0,13.4,1505.3,324.3,-0.7,1.8,2470.295,13.32,0.064,142.6
2020-01-22T02:19:03,42.805,6.029,0.071,-0.042,-0.026,106.0,106.0,103.0,13.4,1505.3,326.5,-0.7,1.8,2470.293,13.32,0.082,120.6
2020-01-22T02:22:03,42.805,6.029,0.043,-0.039,-0.013,107.0,107.0,104.0,13.4,1505.3,327.9,-0.7,1.8,2470.3,13.32,0.058,132.2
2020-01-22T02:25:03,42.805,6.029,0.045,-0.041,-0.013,105.0,107.0,102.0,13.4,1505.3,328.3,-0.7,1.8,2470.312,13.32,0.06,132.3
2020-01-22T02:28:03,42.805,6.029,0.062,-0.04,-0.003,106.0,105.0,103.0,13.4,1505.3,328.6,-0.7,1.8,2470.254,13.32,0.073,122.8
2020-01-22T02:31:03,42.805,6.029,0.081,-0.053,-0.005,106.0,105.0,104.0,13.3,1505.3,327.6,-0.7,1.8,2470.285,13.32,0.096,123.2
2020-01-22T02:34:03,42.805,6.029,0.062,-0.054,-0.039,106.0,106.0,102.0,13.4,1505.3,326.0,-0.7,1.8,2470.339,13.32,0.082,131.1
2020-01-22T02:37:03,42.805,6.029,0.073,-0.053,0.01,108.0,106.0,103.0,13.3,1505.3,328.7,-0.7,1.8,2470.314,13.32,0.09,126.0
2020-01-22T02:40:03,42.805,6.029,0.064,-0.068,-0.039,106.0,106.0,104.0,13.4,1505.3,326.4,-0.7,1.9,2470.319,13.32,0.093,136.7
2020-01-22T02:43:03,42.805,6.029,0.063,-0.049,-0.024,105.0,107.0,103.0,13.3,1505.3,324.0,-0.7,1.9,2470.318,13.32,0.079,127.9
2020-01-22T02:46:03,42.805,6.029,0.065,-0.053,-0.038,106.0,106.0,103.0,13.4,1505.3,325.6,-0.7,1.8,2470.327,13.32,0.083,129.2
2020-01-22T02:49:03,42.805,6.029,0.069,-0.049,-0.011,106.0,106.0,103.0,13.4,1505.3,325.0,-0.7,1.9,2470.344,13.32,0.084,125.4
2020-01-22T02:52:03,42.805,6.029,0.084,-0.04,-0.007,107.0,106.0,103.0,13.4,1505.3,325.8,-0.7,1.8,2470.327,13.32,0.093,115.5
2020-01-22T02:55:03,42.805,6.029,0.038,-0.039,0.007,107.0,106.0,103.0,13.3,1505.3,323.3,-0.7,1.8,2470.329,13.32,0.054,135.7
2020-01-22T02:58:03,42.805,6.029,0.062,-0.048,-0.01,107.0,106.0,103.0,13.4,1505.3,324.7,-0.7,1.9,2470.327,13.32,0.078,127.7
2020-01-22T03:04:03,42.805,6.029,0.063,-0.039,-0.012,106.0,105.0,103.0,13.4,1505.2,323.7,-0.7,1.8,2470.372,13.3,0.074,121.8
2020-01-22T03:07:03,42.805,6.029,0.069,-0.047,-0.019,107.0,106.0,103.0,13.4,1505.3,325.4,-0.7,1.8,2470.376,13.31,0.083,124.3
2020-01-22T03:10:03,42.805,6.029,0.077,-0.075,-0.02,105.0,106.0,103.0,13.4,1505.3,325.8,-0.7,1.8,2470.342,13.31,0.107,134.2
2020-01-22T03:13:03,42.805,6.029,0.046,-0.054,-0.044,106.0,105.0,103.0,13.3,1505.3,327.7,-0.7,1.8,2470.332,13.32,0.07,139.6
2020-01-22T03:16:03,42.805,6.029,0.069,-0.035,-0.003,105.0,106.0,103.0,13.3,1505.3,326.0,-0.8,1.8,2470.319,13.32,0.077,116.9
2020-01-22T03:19:03,42.805,6.029,0.076,-0.043,-0.013,106.0,107.0,105.0,13.3,1505.3,323.8,-0.7,1.9,2470.325,13.32,0.087,119.5
2020-01-22T03:22:03,42.805,6.029,0.063,-0.054,-0.024,106.0,105.0,104.0,13.3,1505.3,327.2,-0.7,1.9,2470.356,13.32,0.082,130.6
2020-01-22T03:25:03,42.805,6.029,0.08,-0.042,-0.004,107.0,106.0,102.0,13.4,1505.3,326.2,-0.7,1.8,2470.329,13.32,0.09,117.7
2020-01-22T03:28:03,42.805,6.029,0.049,-0.051,-0.041,106.0,106.0,103.0,13.4,1505.3,328.3,-0.7,1.8,2470.329,13.32,0.07,136.1
2020-01-22T03:31:03,42.805,6.029,0.066,-0.041,-0.01,107.0,105.0,104.0,13.3,1505.3,327.8,-0.7,1.8,2470.327,13.32,0.077,121.8
2020-01-22T03:34:03,42.805,6.029,0.072,-0.037,-0.009,105.0,106.0,103.0,13.3,1505.3,327.2,-0.7,1.8,2470.382,13.32,0.08,117.2
2020-01-22T03:37:03,42.805,6.029,0.053,-0.06,-0.041,107.0,106.0,104.0,13.4,1505.3,328.6,-0.7,1.8,2470.308,13.32,0.08,138.5
2020-01-22T03:40:03,42.805,6.029,0.064,-0.051,-0.03,106.0,106.0,102.0,13.3,1505.3,328.1,-0.7,1.8,2470.356,13.32,0.081,128.6
2020-01-22T03:43:03,42.805,6.029,0.099,-0.056,-0.031,106.0,105.0,104.0,13.4,1505.3,328.6,-0.7,1.8,2470.365,13.32,0.113,119.5
2020-01-22T03:46:03,42.805,6.029,0.069,-0.058,-0.005,106.0,106.0,103.0,13.3,1505.3,326.9,-0.7,1.8,2470.341,13.32,0.09,130.0
2020-01-22T03:49:03,42.805,6.029,0.071,-0.009,-0.013,105.0,107.0,102.0,13.4,1505.3,326.6,-0.7,1.8,2470.379,13.32,0.071,97.2
2020-01-22T03:52:03,42.805,6.029,0.071,-0.035,-0.014,106.0,106.0,103.0,13.4,1505.3,323.0,-0.7,1.8,2470.409,13.32,0.079,116.2
2020-01-22T03:55:03,42.805,6.029,0.09,-0.047,-0.001,106.0,106.0,102.0,13.4,1505.3,326.6,-0.7,1.8,2470.368,13.32,0.101,117.6
2020-01-22T03:58:03,42.805,6.029,0.074,-0.046,-0.011,105.0,106.0,103.0,13.3,1505.3,325.2,-0.7,1.8,2470.372,13.32,0.087,121.9
2020-01-22T04:04:03,42.805,6.029,0.066,-0.037,0.0,106.0,106.0,103.0,13.4,1505.2,327.9,-0.8,1.8,2470.408,13.3,0.075,119.3
2020-01-22T04:07:03,42.805,6.029,0.059,-0.064,-0.016,105.0,105.0,102.0,13.4,1505.3,324.6,-0.7,1.8,2470.406,13.31,0.087,137.3
2020-01-22T04:10:03,42.805,6.029,0.096,-0.051,0.002,106.0,105.0,103.0,13.4,1505.3,323.3,-0.7,1.8,2470.414,13.31,0.108,118.0
2020-01-22T04:13:03,42.805,6.029,0.074,-0.044,-0.022,107.0,106.0,104.0,13.3,1505.3,323.8,-0.7,1.8,2470.372,13.31,0.086,120.7
2020-01-22T04:16:03,42.805,6.029,0.065,-0.067,-0.01,107.0,105.0,103.0,13.4,1505.3,327.4,-0.7,1.8,2470.448,13.32,0.093,135.9
2020-01-22T04:19:03,42.805,6.029,0.046,-0.063,-0.02,105.0,105.0,104.0,13.4,1505.3,325.6,-0.7,1.8,2470.383,13.32,0.078,143.9
2020-01-22T04:22:03,42.805,6.029,0.09,-0.037,-0.018,106.0,106.0,104.0,13.3,1505.3,326.2,-0.7,1.8,2470.418,13.32,0.097,112.3
2020-01-22T04:25:03,42.805,6.029,0.086,-0.056,-0.018,106.0,105.0,103.0,13.4,1505.3,328.0,-0.7,1.9,2470.354,13.32,0.102,123.1
2020-01-22T04:28:03,42.805,6.029,0.067,-0.037,-0.009,106.0,105.0,103.0,13.3,1505.3,327.0,-0.7,1.8,2470.424,13.32,0.076,118.9
2020-01-22T04:31:03,42.805,6.029,0.067,-0.073,-0.022,105.0,106.0,102.0,13.4,1505.3,328.0,-0.7,1.8,2470.401,13.32,0.099,137.5
2020-01-22T04:34:03,42.805,6.029,0.071,-0.056,-0.01,106.0,105.0,102.0,13.3,1505.3,326.4,-0.7,1.8,2470.362,13.32,0.09,128.3
2020-01-22T04:37:03,42.805,6.029,0.052,-0.035,-0.01,104.0,106.0,104.0,13.3,1505.3,328.6,-0.7,1.8,2470.419,13.32,0.062,123.9
2020-01-22T04:40:03,42.805,6.029,0.076,-0.065,-0.008,106.0,105.0,103.0,13.4,1505.3,327.0,-0.7,1.8,2470.42,13.32,0.1,130.5
2020-01-22T04:43:03,42.805,6.029,0.058,-0.03,-0.015,106.0,104.0,103.0,13.3,1505.3,327.8,-0.7,1.9,2470.435,13.32,0.065,117.4
2020-01-22T04:46:03,42.805,6.029,0.054,-0.049,-0.01,106.0,106.0,102.0,13.4,1505.3,325.4,-0.7,1.8,2470.444,13.32,0.072,132.2
2020-01-22T04:49:03,42.805,6.029,0.06,-0.062,-0.041,105.0,106.0,103.0,13.3,1505.3,324.4,-0.7,1.8,2470.385,13.32,0.086,135.9
2020-01-22T04:52:03,42.805,6.029,0.064,-0.039,0.008,106.0,106.0,103.0,13.3,1505.3,324.5,-0.7,1.9,2470.389,13.32,0.074,121.4
2020-01-22T04:55:03,42.805,6.029,0.051,-0.059,-0.043,106.0,105.0,102.0,13.4,1505.3,326.3,-0.7,1.8,2470.372,13.32,0.077,139.2
2020-01-22T04:58:03,42.805,6.029,0.073,-0.051,-0.05,106.0,105.0,102.0,13.4,1505.3,323.7,-0.7,1.8,2470.431,13.32,0.089,124.9
2020-01-22T05:04:03,42.805,6.029,0.063,-0.075,-0.01,106.0,106.0,102.0,13.4,1505.2,326.7,-0.7,1.8,2470.46,13.3,0.097,140.0
2020-01-22T05:07:03,42.805,6.029,0.073,-0.067,-0.032,107.0,106.0,102.0,13.4,1505.3,327.3,-0.7,1.9,2470.411,13.31,0.099,132.5
2020-01-22T05:10:03,42.805,6.029,0.082,-0.039,-0.018,106.0,105.0,102.0,13.4,1505.3,324.2,-0.7,1.8,2470.427,13.31,0.09,115.4
2020-01-22T05:13:03,42.805,6.029,0.055,-0.039,-0.051,105.0,107.0,103.0,13.3,1505.3,326.7,-0.7,1.8,2470.43,13.31,0.067,125.3
2020-01-22T05:16:03,42.805,6.029,0.08,-0.057,-0.026,105.0,105.0,103.0,13.4,1505.3,323.7,-0.7,1.9,2470.454,13.32,0.098,125.5
2020-01-22T05:19:03,42.805,6.029,0.059,-0.018,-0.029,107.0,106.0,104.0,13.4,1505.3,324.2,-0.7,1.8,2470.387,13.32,0.061,107.0
2020-01-22T05:22:03,42.805,6.029,0.066,-0.054,-0.021,106.0,106.0,102.0,13.3,1505.3,327.0,-0.7,1.8,2470.384,13.32,0.085,129.3
2020-01-22T05:25:03,42.805,6.029,0.082,-0.031,-0.049,105.0,106.0,102.0,13.4,1505.3,323.0,-0.7,1.8,2470.416,13.32,0.087,110.7
2020-01-22T05:28:03,42.805,6.029,0.045,-0.04,0.003,106.0,105.0,103.0,13.4,1505.3,327.9,-0.7,1.8,2470.441,13.32,0.06,131.6
2020-01-22T05:31:03,42.805,6.029,0.072,-0.033,0.0,106.0,104.0,102.0,13.4,1505.3,324.7,-0.7,1.8,2470.39,13.32,0.079,114.6
2020-01-22T05:34:03,42.805,6.029,0.073,-0.058,-0.001,106.0,105.0,104.0,13.3,1505.3,327.3,-0.7,1.8,2470.417,13.32,0.093,128.5
2020-01-22T05:37:03,42.805,6.029,0.078,-0.061,-0.015,105.0,106.0,102.0,13.3,1505.3,326.9,-0.7,1.8,2470.409,13.32,0.099,128.0
2020-01-22T05:40:03,42.805,6.029,0.049,-0.054,-0.04,106.0,106.0,103.0,13.4,1505.3,323.4,-0.7,1.8,2470.387,13.32,0.072,137.8
2020-01-22T05:43:03,42.805,6.029,0.078,-0.047,-0.004,106.0,106.0,103.0,13.4,1505.3,326.1,-0.7,1.9,2470.433,13.32,0.091,121.1
2020-01-22T05:46:03,42.805,6.029,0.062,-0.038,-0.049,105.0,105.0,104.0,13.4,1505.3,326.7,-0.7,1.8,2470.439,13.32,0.072,121.5
2020-01-22T05:49:03,42.805,6.029,0.062,-0.038,-0.003,106.0,104.0,103.0,13.4,1505.3,327.6,-0.7,1.8,2470.389,13.32,0.072,121.5
2020-01-22T05:55:03,42.805,6.029,0.042,-0.038,-0.006,106.0,106.0,102.0,13.4,1505.2,328.0,-0.7,1.8,2470.435,13.3,0.056,132.1
2020-01-22T05:58:03,42.805,6.029,0.049,-0.057,-0.006,106.0,105.0,103.0,13.4,1505.3,325.4,-0.7,1.9,2470.468,13.31,0.075,139.3
2020-01-22T06:04:03,42.805,6.029,0.071,-0.055,-0.01,106.0,106.0,103.0,13.4,1505.2,324.1,-0.7,1.8,2470.463,13.3,0.089,127.8
2020-01-22T06:07:03,42.805,6.029,0.073,-0.065,-0.024,105.0,106.0,103.0,13.4,1505.3,327.0,-0.7,1.9,2470.45,13.31,0.097,131.7
2020-01-22T06:10:03,42.805,6.029,0.086,-0.042,-0.015,107.0,106.0,103.0,13.4,1505.3,325.0,-0.7,1.8,2470.439,13.31,0.095,116.0
2020-01-22T06:13:03,42.805,6.029,0.061,-0.053,0.008,105.0,105.0,103.0,13.3,1505.3,328.3,-0.7,1.8,2470.438,13.31,0.08,131.0
2020-01-22T06:16:03,42.805,6.029,0.05,-0.056,-0.03,106.0,106.0,102.0,13.4,1505.3,326.4,-0.7,1.9,2470.381,13.32,0.075,138.2
2020-01-22T06:19:03,42.805,6.029,0.057,-0.033,-0.015,107.0,105.0,103.0,13.3,1505.3,323.9,-0.7,1.9,2470.407,13.32,0.065,120.1
2020-01-22T06:22:03,42.805,6.029,0.047,-0.035,-0.035,106.0,106.0,102.0,13.4,1505.3,324.8,-0.7,1.8,2470.409,13.32,0.058,126.7
2020-01-22T06:25:03,42.805,6.029,0.063,-0.052,0.011,106.0,105.0,103.0,13.4,1505.3,323.6,-0.7,1.8,2470.445,13.32,0.081,129.5
2020-01-22T06:28:03,42.805,6.029,0.07,-0.047,-0.011,106.0,106.0,104.0,13.4,1505.3,323.4,-0.8,1.8,2470.424,13.32,0.084,123.9
2020-01-22T06:31:03,42.805,6.029,0.062,-0.037,-0.024,106.0,106.0,104.0,13.4,1505.3,324.8,-0.7,1.9,2470.434,13.32,0.072,120.8
2020-01-22T06:34:03,42.805,6.029,0.066,-0.071,-0.028,105.0,106.0,103.0,13.4,1505.3,328.8,-0.7,1.8,2470.418,13.32,0.096,137.1
2020-01-22T06:37:03,42.805,6.029,0.064,-0.037,-0.035,106.0,105.0,102.0,13.3,1505.3,323.9,-0.7,1.8,2470.408,13.32,0.073,120.0
2020-01-22T06:43:03,42.805,6.029,0.065,-0.029,0.005,106.0,107.0,104.0,13.4,1505.2,324.5,-0.8,1.8,2470.452,13.3,0.071,114.0
2020-01-22T06:46:03,42.805,6.029,0.06,-0.027,0.003,107.0,107.0,103.0,13.3,1505.3,323.9,-0.7,1.8,2470.432,13.31,0.065,114.2
2020-01-22T06:49:03,42.805,6.029,0.063,-0.047,0.005,105.0,105.0,103.0,13.4,1505.3,327.2,-0.7,1.9,2470.433,13.31,0.078,126.7
2020-01-22T06:52:03,42.805,6.029,0.053,-0.041,-0.034,105.0,106.0,103.0,13.4,1505.3,326.0,-0.7,1.8,2470.45,13.31,0.067,127.7
2020-01-22T06:55:03,42.805,6.029,0.06,-0.069,-0.068,106.0,105.0,103.0,13.3,1505.3,326.9,-0.7,1.8,2470.421,13.32,0.091,139.0
2020-01-22T06:58:03,42.805,6.029,0.06,-0.044,-0.025,106.0,105.0,103.0,13.4,1505.3,324.7,-0.7,1.8,2470.436,13.32,0.074,126.3
2020-01-22T07:04:03,42.805,6.029,0.076,-0.07,-0.049,105.0,108.0,103.0,13.4,1505.2,327.7,-0.8,1.8,2470.447,13.3,0.103,132.6
2020-01-22T07:07:03,42.805,6.029,0.068,-0.051,-0.003,105.0,104.0,103.0,13.4,1505.3,326.4,-0.7,1.8,2470.424,13.31,0.084,126.9
2020-01-22T07:10:03,42.805,6.029,0.071,-0.06,-0.013,106.0,105.0,103.0,13.4,1505.3,325.5,-0.7,1.8,2470.409,13.31,0.092,130.2
2020-01-22T07:13:03,42.805,6.029,0.065,-0.063,-0.038,105.0,105.0,103.0,13.4,1505.3,324.5,-0.7,1.8,2470.399,13.31,0.09,134.1
2020-01-22T07:16:03,42.805,6.029,0.051,-0.055,-0.009,107.0,104.0,103.0,13.4,1505.3,325.5,-0.7,1.8,2470.391,13.32,0.075,137.2
2020-01-22T07:19:03,42.805,6.029,0.058,-0.056,-0.026,107.0,105.0,103.0,13.4,1505.3,324.1,-0.7,1.9,2470.423,13.32,0.08,134.0
2020-01-22T07:22:03,42.805,6.029,0.06,-0.039,-0.02,106.0,105.0,103.0,13.4,1505.3,326.3,-0.7,1.8,2470.426,13.32,0.071,123.0
2020-01-22T07:25:03,42.805,6.029,0.049,-0.051,-0.02,106.0,106.0,103.0,13.4,1505.3,326.3,-0.7,1.8,2470.466,13.32,0.07,136.1
2020-01-22T07:28:03,42.805,6.029,0.071,-0.071,-0.037,105.0,105.0,102.0,13.4,1505.3,324.5,-0.7,1.8,2470.399,13.32,0.1,135.0
2020-01-22T07:31:03,42.805,6.029,0.064,-0.052,-0.016,106.0,105.0,104.0,13.4,1505.3,326.4,-0.7,1.8,2470.382,13.32,0.082,129.1
2020-01-22T07:34:03,42.805,6.029,0.066,-0.067,-0.022,104.0,105.0,103.0,13.4,1505.3,327.1,-0.7,1.8,2470.461,13.32,0.094,135.4
2020-01-22T07:37:03,42.805,6.029,0.05,-0.041,-0.016,105.0,106.0,104.0,13.4,1505.3,324.1,-0.7,1.8,2470.431,13.32,0.064,129.3
2020-01-22T07:40:03,42.805,6.029,0.054,-0.03,-0.027,106.0,106.0,102.0,13.4,1505.3,328.2,-0.7,1.8,2470.44,13.32,0.061,119.1
2020-01-22T07:43:03,42.805,6.029,0.057,-0.052,-0.033,107.0,106.0,103.0,13.4,1505.3,328.1,-0.7,1.8,2470.394,13.32,0.077,132.4
2020-01-22T07:46:03,42.805,6.029,0.052,-0.068,-0.033,106.0,105.0,103.0,13.4,1505.3,324.4,-0.7,1.8,2470.411,13.32,0.085,142.6
2020-01-22T07:49:03,42.805,6.029,0.045,-0.069,-0.041,105.0,105.0,103.0,13.3,1505.3,325.1,-0.7,1.8,2470.402,13.32,0.082,146.9
2020-01-22T07:52:03,42.805,6.029,0.05,-0.066,-0.023,104.0,105.0,104.0,13.4,1505.3,327.2,-0.7,1.8,2470.376,13.32,0.082,142.8
2020-01-22T07:55:03,42.805,6.029,0.039,-0.054,-0.009,106.0,105.0,103.0,13.4,1505.3,326.0,-0.7,1.9,2470.377,13.32,0.066,144.2
2020-01-22T07:58:03,42.805,6.029,0.056,-0.058,-0.017,107.0,106.0,102.0,13.4,1505.3,326.5,-0.7,1.8,2470.375,13.32,0.08,136.0
2020-01-22T08:04:03,42.805,6.029,0.064,-0.052,-0.009,107.0,106.0,102.0,13.3,1505.2,324.9,-0.8,1.8,2470.432,13.3,0.082,129.1
2020-01-22T08:07:03,42.805,6.029,0.043,-0.052,-0.023,106.0,105.0,102.0,13.4,1505.3,324.9,-0.7,1.9,2470.443,13.31,0.067,140.4
2020-01-22T08:10:03,42.805,6.029,0.053,-0.076,-0.028,106.0,105.0,102.0,13.4,1505.3,324.7,-0.7,1.8,2470.362,13.31,0.092,145.1
2020-01-22T08:13:03,42.805,6.029,0.038,-0.045,-0.014,105.0,104.0,103.0,13.4,1505.3,325.6,-0.7,1.8,2470.407,13.31,0.058,139.8
2020-01-22T08:16:03,42.805,6.029,0.055,-0.087,-0.017,107.0,105.0,103.0,13.4,1505.3,327.2,-0.7,1.9,2470.425,13.32,0.102,147.7
2020-01-22T08:19:03,42.805,6.029,0.057,-0.062,-0.013,106.0,106.0,103.0,13.4,1505.3,327.4,-0.7,1.8,2470.42,13.32,0.084,137.4
2020-01-22T08:22:03,42.805,6.029,0.038,-0.044,-0.045,106.0,106.0,103.0,13.3,1505.3,327.3,-0.7,1.8,2470.407,13.32,0.058,139.2
2020-01-22T08:25:03,42.805,6.029,0.058,-0.063,-0.022,106.0,106.0,103.0,13.4,1505.3,326.1,-0.7,1.8,2470.405,13.32,0.085,137.4
2020-01-22T08:28:03,42.805,6.029,0.016,-0.065,-0.06,107.0,106.0,103.0,13.3,1505.3,325.3,-0.7,1.8,2470.378,13.32,0.066,166.2
2020-01-22T08:31:03,42.805,6.029,0.056,-0.05,-0.03,106.0,107.0,104.0,13.4,1505.3,324.7,-0.7,1.8,2470.394,13.32,0.075,131.8
2020-01-22T08:34:03,42.805,6.029,0.05,-0.061,-0.027,105.0,105.0,103.0,13.4,1505.3,326.5,-0.7,1.8,2470.369,13.32,0.078,140.7
2020-01-22T08:37:03,42.805,6.029,0.072,-0.085,-0.026,106.0,107.0,103.0,13.4,1505.3,328.4,-0.7,1.8,2470.381,13.32,0.111,139.7
2020-01-22T08:40:03,42.805,6.029,0.064,-0.078,-0.029,105.0,105.0,102.0,13.4,1505.3,325.3,-0.7,1.8,2470.402,13.32,0.1,140.6
2020-01-22T08:43:03,42.805,6.029,0.065,-0.055,-0.026,106.0,105.0,103.0,13.4,1505.3,326.0,-0.7,1.9,2470.337,13.32,0.085,130.2
2020-01-22T08:46:03,42.805,6.029,0.058,-0.052,-0.029,105.0,105.0,104.0,13.3,1505.3,326.6,-0.7,1.8,2470.402,13.32,0.077,131.9
2020-01-22T08:49:03,42.805,6.029,0.078,-0.057,-0.038,105.0,105.0,103.0,13.4,1505.3,323.1,-0.7,1.8,2470.359,13.32,0.096,126.2
2020-01-22T08:52:03,42.805,6.029,0.064,-0.07,-0.032,106.0,106.0,103.0,13.4,1505.3,322.8,-0.7,1.8,2470.325,13.32,0.094,137.6
2020-01-22T08:55:03,42.805,6.029,0.037,-0.041,-0.022,106.0,106.0,103.0,13.3,1505.3,327.0,-0.7,1.8,2470.387,13.32,0.055,137.9
2020-01-22T08:58:03,42.805,6.029,0.054,-0.059,0.012,105.0,106.0,102.0,13.4,1505.3,324.5,-0.7,1.8,2470.404,13.32,0.079,137.5
2020-01-22T09:04:03,42.805,6.029,0.04,-0.039,0.023,106.0,106.0,103.0,13.4,1505.2,323.0,-0.7,1.8,2470.413,13.3,0.055,134.3
2020-01-22T09:07:03,42.805,6.029,0.025,-0.073,-0.007,106.0,106.0,103.0,13.4,1505.3,327.7,-0.8,1.8,2470.387,13.31,0.077,161.1
2020-01-22T09:10:03,42.805,6.029,0.046,-0.052,-0.015,106.0,106.0,103.0,13.3,1505.3,327.4,-0.7,1.8,2470.404,13.31,0.069,138.5
2020-01-22T09:13:03,42.805,6.029,0.044,-0.045,-0.024,107.0,106.0,103.0,13.4,1505.3,323.7,-0.7,1.8,2470.387,13.31,0.062,135.6
2020-01-22T09:16:03,42.805,6.029,0.075,-0.048,0.0,106.0,105.0,103.0,13.3,1505.3,326.1,-0.7,1.8,2470.395,13.32,0.089,122.6
2020-01-22T09:19:03,42.805,6.029,0.054,-0.057,-0.021,105.0,106.0,103.0,13.4,1505.3,326.6,-0.7,1.9,2470.396,13.32,0.078,136.5
2020-01-22T09:22:03,42.805,6.029,0.036,-0.064,-0.012,107.0,105.0,103.0,13.4,1505.3,322.8,-0.7,1.8,2470.348,13.32,0.073,150.6
2020-01-22T09:25:03,42.805,6.029,0.062,-0.07,-0.015,106.0,106.0,102.0,13.4,1505.3,328.2,-0.7,1.8,2470.376,13.32,0.093,138.5
2020-01-22T09:28:03,42.805,6.029,0.043,-0.08,-0.023,105.0,106.0,104.0,13.4,1505.3,324.8,-0.7,1.8,2470.354,13.32,0.09,151.7
2020-01-22T09:31:03,42.805,6.029,0.041,-0.044,-0.019,106.0,105.0,103.0,13.3,1505.3,326.9,-0.7,1.8,2470.389,13.32,0.06,137.0
2020-01-22T09:34:03,42.805,6.029,0.041,-0.054,-0.02,105.0,106.0,103.0,13.4,1505.3,323.7,-0.7,1.8,2470.374,13.32,0.067,142.8
2020-01-22T09:37:03,42.805,6.029,0.054,-0.061,-0.008,106.0,106.0,103.0,13.3,1505.3,328.3,-0.7,1.8,2470.382,13.32,0.081,138.5
2020-01-22T09:40:03,42.805,6.029,0.039,-0.058,-0.021,106.0,106.0,103.0,13.4,1505.3,325.6,-0.7,1.8,2470.319,13.32,0.069,146.1
2020-01-22T09:43:03,42.805,6.029,0.06,-0.051,0.022,105.0,105.0,103.0,13.4,1505.3,325.7,-0.7,1.8,2470.348,13.32,0.078,130.4
2020-01-22T09:46:03,42.805,6.029,0.063,-0.049,0.016,105.0,106.0,103.0,13.4,1505.3,325.3,-0.7,1.8,2470.378,13.32,0.079,127.9
2020-01-22T09:49:03,42.805,6.029,0.04,-0.043,-0.027,106.0,105.0,102.0,13.3,1505.3,327.1,-0.7,1.8,2470.342,13.32,0.058,137.1
2020-01-22T09:52:03,42.805,6.029,0.054,-0.06,-0.014,106.0,105.0,103.0,13.3,1505.3,324.7,-0.7,1.8,2470.352,13.32,0.08,138.0
2020-01-22T09:55:03,42.805,6.029,0.048,-0.048,-0.032,106.0,105.0,103.0,13.4,1505.3,323.5,-0.7,1.9,2470.317,13.32,0.067,135.0
2020-01-22T09:58:03,42.805,6.029,0.047,-0.046,-0.038,106.0,106.0,103.0,13.3,1505.3,324.8,-0.7,1.8,2470.326,13.32,0.065,134.4
2020-01-22T10:04:03,42.805,6.029,0.025,-0.047,-0.021,106.0,105.0,103.0,13.4,1505.2,326.2,-0.8,1.8,2470.374,13.3,0.053,152.0
2020-01-22T10:07:03,42.805,6.029,0.045,-0.062,-0.012,107.0,106.0,104.0,13.4,1505.3,324.6,-0.7,1.8,2470.354,13.31,0.076,144.0
2020-01-22T10:10:03,42.805,6.029,0.032,-0.059,-0.007,107.0,106.0,103.0,13.4,1505.3,324.7,-0.7,1.8,2470.361,13.31,0.067,151.5